Voltar ao catálogo

STARLINK-6088

AtivoComunicaçõesVLEO
NORAD 56098·PAYLOAD·🇺🇸 United States

Lançado Mar 29, 2023 de Cape Canaveral Space Force Station

Loading…

Próximas Passagens (próximas 24 horas)

TLE

AtualizadoSource: CelesTrak SupGP

Época: Sep 15, 2026, 01:25 UTC

1 56098C 23046F   26258.05951389 -.00003990  00000+0 -14456-3 0  2589
2 56098  42.9997 171.8719 0001296 261.8745 179.8308 15.27574635    17

Acompanhe STARLINK-6088 em tempo real com AllMySat

Download on the App Store